EW5474 Weather Reports


Display with metric or nautical units.
time (UTC)temp
F
wind
direction
speed
MPH
gust
MPH
rain 1hr
in
rain 24hr
in
rain mn
in
humidity
%
barometer
mb
20260904032408 83 194 0.0 2.0 0.00 0.00 0.00 83 1014.6
20260904031902 83 194 0.0 2.0 0.00 0.00 0.00 84 1014.6
20260904031356 83 180 0.0 2.0 0.00 0.00 0.00 84 1014.6
20260904030850 83 200 0.0 3.0 0.00 0.00 0.00 84 1014.5
20260904030614 83 176 0.0 3.0 0.00 0.00 0.00 84 1014.6
20260904025838 83 180 0.0 0.0 0.00 0.00 0.00 84 1014.6
20260904025332 83 180 0.0 0.0 0.00 0.00 0.00 84 1014.6
20260904024825 83 180 0.0 1.0 0.00 0.00 0.00 84 1014.6
20260904024320 83 206 0.0 1.0 0.00 0.00 0.00 84 1014.7
20260904023813 83 190 0.0 0.0 0.00 0.00 0.00 83 1014.8
20260904023308 83 178 0.0 0.0 0.00 0.00 0.00 83 1014.8
20260904022802 83 178 0.0 0.0 0.00 0.00 0.00 83 1014.8
20260904022527 83 178 0.0 0.0 0.00 0.00 0.00 83 1015.0
20260904021750 83 172 0.0 0.0 0.00 0.00 0.00 82 1015.0
20260904021243 83 172 0.0 0.0 0.00 0.00 0.00 82 1015.0
20260904020738 83 175 0.0 0.0 0.00 0.00 0.00 82 1015.0
20260904020232 83 160 0.0 0.0 0.00 0.00 0.00 82 1015.1
20260904015726 83 146 0.0 0.0 0.00 0.00 0.00 82 1015.2
20260904015220 84 146 0.0 0.0 0.00 0.00 0.00 82 1015.3
20260904014713 84 146 0.0 0.0 0.00 0.00 0.00 82 1015.3
20260904014207 84 146 0.0 0.0 0.00 0.00 0.00 82 1015.2
20260904013702 84 146 0.0 0.0 0.00 0.00 0.00 82 1015.2
20260904013156 84 146 0.0 0.0 0.00 0.00 0.00 82 1015.2
20260904012921 84 146 0.0 0.0 0.00 0.00 0.00 82 1015.1
20260904012415 84 171 0.0 0.0 0.00 0.00 0.00 82 1015.0
20260904011638 84 178 0.0 0.0 0.00 0.00 0.00 82 1015.0
20260904011403 84 178 0.0 0.0 0.00 0.00 0.00 82 1015.1
20260904010625 84 181 0.0 0.0 0.00 0.00 0.00 81 1015.0
20260904010120 84 198 0.0 0.0 0.00 0.00 0.00 81 1015.1
20260904005614 84 198 0.0 0.0 0.00 0.00 0.00 81 1015.0
20260904005108 85 198 0.0 0.0 0.00 0.00 0.00 80 1015.0
20260904004602 85 198 0.0 0.0 0.00 0.00 0.00 80 1014.9
20260904004326 85 198 0.0 0.0 0.00 0.00 0.00 80 1014.7
20260904003550 85 198 0.0 0.0 0.00 0.00 0.00 80 1014.6
20260904003044 85 198 0.0 0.0 0.00 0.00 0.00 80 1014.5
20260904002538 85 198 0.0 0.0 0.00 0.00 0.00 80 1014.5
20260904002306 85 198 0.0 0.0 0.00 0.00 0.00 80 1014.4
20260904001756 85 212 0.0 0.0 0.00 0.00 0.00 79 1014.3
20260904001020 85 212 0.0 0.0 0.00 0.00 0.00 79 1014.1
20260904000514 85 212 0.0 0.0 0.00 0.00 0.00 79 1014.1
20260904000008 85 169 0.0 0.0 0.00 0.00 0.00 79 1014.0
20260903235501 85 169 0.0 0.0 0.00 0.00 0.00 79 1013.9
20260903234956 85 169 0.0 0.0 0.00 0.00 0.00 79 1014.0
20260903234450 86 169 0.0 0.0 0.00 0.00 0.00 79 1013.9
20260903233944 86 173 0.0 0.0 0.00 0.00 0.00 79 1013.8
20260903233438 86 168 0.0 0.0 0.00 0.00 0.00 79 1013.7
20260903232932 86 192 0.0 1.0 0.00 0.00 0.00 79 1013.8
20260903232426 86 192 0.0 2.0 0.00 0.00 0.00 78 1013.8
20260903231919 86 167 0.0 2.0 0.00 0.00 0.00 78 1013.7
20260903231414 86 148 0.0 1.0 0.00 0.00 0.00 78 1013.8
20260903230907 86 84 0.0 4.0 0.00 0.00 0.00 78 1013.6
20260903230402 87 163 0.0 4.0 0.00 0.00 0.00 78 1013.6
20260903225856 87 130 0.0 2.0 0.00 0.00 0.00 78 1013.5
20260903225349 87 140 0.0 4.0 0.00 0.00 0.00 78 1013.5
20260903224844 87 185 1.0 4.0 0.00 0.00 0.00 78 1013.6
20260903224338 87 187 0.0 4.0 0.00 0.00 0.00 78 1013.6
20260903223832 87 168 1.0 4.0 0.00 0.00 0.00 78 1013.6
20260903223326 87 151 1.0 5.0 0.00 0.00 0.00 77 1013.6
20260903222820 87 199 1.0 5.0 0.00 0.00 0.00 77 1013.5
20260903222314 87 173 1.0 5.0 0.00 0.00 0.00 77 1013.6
20260903222041 88 200 1.0 5.0 0.00 0.00 0.00 76 1013.6
20260903221301 88 151 1.0 5.0 0.00 0.00 0.00 76 1013.7
20260903220755 88 165 1.0 6.0 0.00 0.00 0.00 76 1013.6
20260903220249 88 100 1.0 6.0 0.00 0.00 0.00 75 1013.6
20260903220015 89 22 1.0 4.0 0.00 0.00 0.00 75 1013.7
20260903215238 89 161 1.0 5.0 0.00 0.00 0.00 75 1013.7
20260903214732 88 222 1.0 5.0 0.00 0.00 0.00 76 1013.7
20260903214226 89 37 1.0 4.0 0.00 0.00 0.00 75 1013.7
20260903213720 89 192 1.0 4.0 0.00 0.00 0.00 76 1013.7
20260903213214 89 275 1.0 3.0 0.00 0.00 0.00 75 1013.6
20260903212708 89 47 1.0 3.0 0.00 0.00 0.00 75 1013.7
20260903212433 90 49 0.0 4.0 0.00 0.00 0.00 75 1013.7
20260903211656 90 12 1.0 4.0 0.00 0.00 0.00 74 1013.7
20260903211150 90 221 1.0 3.0 0.00 0.00 0.00 75 1013.6
20260903210644 91 63 1.0 4.0 0.00 0.00 0.00 74 1013.6
20260903210138 91 63 1.0 4.0 0.00 0.00 0.00 74 1013.7
20260903205631 91 28 1.0 3.0 0.00 0.00 0.00 74 1013.7
20260903205126 91 119 1.0 3.0 0.00 0.00 0.00 72 1013.6
20260903204619 91 84 0.0 2.0 0.00 0.00 0.00 74 1013.6
20260903204345 91 142 1.0 3.0 0.00 0.00 0.00 74 1013.7
20260903203608 91 57 1.0 4.0 0.00 0.00 0.00 74 1013.7
20260903203102 91 223 1.0 4.0 0.00 0.00 0.00 74 1013.8
20260903202609 91 32 1.0 6.0 0.00 0.00 0.00 74 1013.8
20260903202053 91 170 1.0 6.0 0.00 0.00 0.00 73 1013.8
20260903202046 90 10 1.0 4.0 0.00 0.00 0.00 75 1013.9
20260903201038 91 210 1.0 5.0 0.00 0.00 0.00 73 1014.0
20260903200532 91 175 1.0 4.0 0.00 0.00 0.00 73 1014.2
20260903200027 91 57 0.0 4.0 0.00 0.00 0.00 72 1014.1
20260903195520 91 168 1.0 4.0 0.00 0.00 0.00 73 1014.3
20260903195014 91 172 1.0 4.0 0.00 0.00 0.00 72 1014.4
20260903194508 92 85 1.0 5.0 0.00 0.00 0.00 73 1014.5
20260903194002 91 175 1.0 5.0 0.00 0.00 0.00 72 1014.5
20260903193456 91 85 1.0 4.0 0.00 0.00 0.00 74 1014.7
20260903192950 91 158 1.0 4.0 0.00 0.00 0.00 73 1014.7
20260903192444 91 25 1.0 4.0 0.00 0.00 0.00 74 1014.7
20260903191938 91 30 1.0 5.0 0.00 0.00 0.00 74 1014.8
20260903191434 90 293 2.0 5.0 0.00 0.00 0.00 74 1014.8
20260903191428 90 145 1.0 4.0 0.00 0.00 0.00 74 1015.0
20260903190419 90 86 1.0 5.0 0.00 0.00 0.00 74 1015.1
20260903185913 90 28 1.0 5.0 0.00 0.00 0.00 74 1015.1
20260903185408 90 31 1.0 5.0 0.00 0.00 0.00 76 1015.1
20260903184901 89 281 1.0 5.0 0.00 0.00 0.00 76 1015.2
20260903184356 89 15 1.0 4.0 0.00 0.00 0.00 76 1015.1
20260903183850 89 142 1.0 4.0 0.00 0.00 0.00 76 1015.2
20260903183344 88 82 1.0 5.0 0.00 0.00 0.00 78 1015.2
20260903183109 88 31 2.0 5.0 0.00 0.00 0.00 78 1015.3
20260903182332 88 38 2.0 5.0 0.00 0.00 0.00 77 1015.3
20260903181826 88 332 2.0 6.0 0.00 0.00 0.00 77 1015.4
20260903181320 89 11 1.0 6.0 0.00 0.00 0.00 74 1015.4
20260903180826 90 0 0.0 5.0 0.00 0.00 0.00 74 1015.3
20260903180539 90 86 1.0 5.0 0.00 0.00 0.00 74 1015.4
20260903175801 91 183 1.0 4.0 0.00 0.00 0.00 76 1015.4
20260903175256 91 62 1.0 4.0 0.00 0.00 0.00 70 1015.4
20260903174750 92 165 1.0 4.0 0.00 0.00 0.00 73 1015.5
20260903174243 90 171 2.0 6.0 0.00 0.00 0.00 74 1015.5
20260903173738 90 248 2.0 9.0 0.00 0.00 0.00 74 1015.6
20260903173503 91 179 3.0 9.0 0.00 0.00 0.00 72 1015.7
20260903172726 92 125 2.0 8.0 0.00 0.00 0.00 72 1015.6
20260903172220 91 190 2.0 5.0 0.00 0.00 0.00 76 1015.7
20260903171727 90 163 2.0 5.0 0.00 0.00 0.00 75 1015.6
20260903171207 90 191 2.0 6.0 0.00 0.00 0.00 75 1015.7
20260903170702 91 143 3.0 8.0 0.00 0.00 0.00 73 1015.8
20260903170426 91 169 3.0 8.0 0.00 0.00 0.00 73 1015.8
20260903165650 91 184 2.0 7.0 0.00 0.00 0.00 73 1015.7
20260903165144 90 128 2.0 7.0 0.00 0.00 0.00 74 1015.8
20260903164637 90 213 2.0 7.0 0.00 0.00 0.00 74 1015.7
20260903164132 89 166 1.0 6.0 0.00 0.00 0.00 76 1015.9
20260903163627 89 255 1.0 5.0 0.00 0.00 0.00 77 1016.0
20260903163120 89 180 1.0 4.0 0.00 0.00 0.00 74 1016.1
20260903162614 90 200 2.0 6.0 0.00 0.00 0.00 77 1016.3
20260903162108 89 162 2.0 9.0 0.00 0.00 0.00 77 1016.4
20260903161602 89 171 2.0 5.0 0.00 0.00 0.00 78 1016.3
20260903161056 89 194 2.0 7.0 0.00 0.00 0.00 77 1016.4
20260903160550 89 182 2.0 7.0 0.00 0.00 0.00 78 1016.5
20260903160328 89 155 2.0 5.0 0.00 0.00 0.00 78 1016.5
20260903155538 89 146 2.0 6.0 0.00 0.00 0.00 78 1016.6
20260903155032 88 86 3.0 10.0 0.00 0.00 0.00 78 1016.7
20260903154757 88 324 3.0 10.0 0.00 0.00 0.00 78 1016.8
20260903154251 87 73 2.0 6.0 0.00 0.00 0.00 79 1016.8
20260903153513 87 178 2.0 6.0 0.00 0.00 0.00 78 1016.8
20260903153008 87 158 2.0 6.0 0.00 0.00 0.00 79 1016.9
20260903152501 87 120 2.0 5.0 0.00 0.00 0.00 80 1017.0
20260903151956 86 5 2.0 5.0 0.00 0.00 0.00 80 1016.9
20260903151449 86 5 2.0 5.0 0.00 0.00 0.00 80 1017.0
20260903150943 86 5 2.0 8.0 0.00 0.00 0.00 80 1017.0
20260903150450 87 15 2.0 8.0 0.00 0.00 0.00 78 1017.0
20260903150203 87 342 1.0 4.0 0.00 0.00 0.00 77 1016.9
20260903145657 88 355 1.0 3.0 0.00 0.00 0.00 76 1017.0
20260903144919 88 160 1.0 6.0 0.00 0.00 0.00 75 1017.0
20260903144417 88 54 2.0 6.0 0.00 0.00 0.00 76 1017.1
20260903144410 88 190 2.0 5.0 0.00 0.00 0.00 76 1017.0
20260903143401 87 5 1.0 5.0 0.00 0.00 0.00 77 1017.0
20260903142856 87 169 1.0 3.0 0.00 0.00 0.00 77 1016.9
20260903142349 87 330 1.0 6.0 0.00 0.00 0.00 79 1016.9
20260903141844 87 327 1.0 6.0 0.00 0.00 0.00 77 1016.9
20260903141337 87 340 1.0 3.0 0.00 0.00 0.00 78 1016.8
20260903140832 86 52 0.0 3.0 0.00 0.00 0.00 79 1016.7
20260903140556 86 140 0.0 0.0 0.00 0.00 0.00 80 1016.7
20260903135819 85 169 0.0 0.0 0.00 0.00 0.00 80 1016.6
20260903135314 84 168 0.0 0.0 0.00 0.00 0.00 81 1016.7
20260903134808 84 257 0.0 0.0 0.00 0.00 0.00 80 1016.6
20260903134302 84 315 0.0 1.0 0.00 0.00 0.00 81 1016.6
20260903133756 84 35 0.0 1.0 0.00 0.00 0.00 82 1016.6
20260903133521 83 182 0.0 2.0 0.00 0.00 0.00 83 1016.7
20260903133015 83 182 1.0 2.0 0.00 0.00 0.00 83 1016.7
20260903132237 83 66 1.0 3.0 0.00 0.00 0.00 84 1016.8
20260903131732 82 141 0.0 3.0 0.00 0.00 0.00 84 1016.8
20260903131225 82 171 0.0 2.0 0.00 0.00 0.00 85 1016.9
20260903130720 82 195 1.0 4.0 0.00 0.00 0.00 86 1016.9
20260903130214 82 253 1.0 5.0 0.00 0.00 0.00 86 1016.9
20260903125708 82 176 1.0 5.0 0.00 0.00 0.00 87 1016.8
20260903125202 81 187 0.0 1.0 0.00 0.00 0.00 88 1016.9
20260903124656 80 189 0.0 5.0 0.00 0.00 0.00 88 1016.9
20260903124150 80 206 1.0 5.0 0.00 0.00 0.00 89 1017.0
20260903123644 80 164 1.0 5.0 0.00 0.00 0.00 90 1016.9
20260903123138 80 194 0.0 3.0 0.00 0.00 0.00 90 1016.9
20260903122631 79 157 0.0 0.0 0.00 0.00 0.00 90 1016.9
20260903122126 79 157 1.0 5.0 0.00 0.00 0.00 90 1016.9
20260903121619 79 184 1.0 5.0 0.00 0.00 0.00 90 1016.9
20260903121114 79 146 0.0 5.0 0.00 0.00 0.00 90 1016.9
20260903120608 78 157 0.0 0.0 0.00 0.00 0.00 90 1016.9
20260903120115 78 182 0.0 4.0 0.00 0.00 0.00 89 1017.0
20260903115608 78 143 0.0 4.0 0.00 0.00 0.00 89 1016.9
20260903115050 77 164 0.0 0.0 0.00 0.00 0.00 89 1016.9
20260903114544 77 179 0.0 0.0 0.00 0.00 0.00 89 1016.9
20260903114050 76 117 0.0 0.0 0.00 0.00 0.00 89 1017.0
20260903113532 76 117 0.0 0.0 0.00 0.00 0.00 88 1016.9
20260903113026 76 117 0.0 0.0 0.00 0.00 0.00 88 1016.8
20260903112519 76 117 0.0 0.0 0.00 0.00 0.00 88 1016.8
20260903112245 76 117 0.0 0.0 0.00 0.00 0.00 88 1016.8
20260903111508 76 117 0.0 0.0 0.00 0.00 0.00 88 1016.8
20260903111001 76 117 0.0 0.0 0.00 0.00 0.00 88 1016.7
20260903110456 76 117 0.0 0.0 0.00 0.00 0.00 88 1016.6
20260903105950 76 117 0.0 0.0 0.00 0.00 0.00 88 1016.5
20260903105444 76 117 0.0 0.0 0.00 0.00 0.00 88 1016.5
20260903104940 76 117 0.0 0.0 0.00 0.00 0.00 88 1016.5
20260903104934 76 117 0.0 0.0 0.00 0.00 0.00 88 1016.4
20260903103926 76 117 0.0 0.0 0.00 0.00 0.00 87 1016.3
20260903103650 76 117 0.0 0.0 0.00 0.00 0.00 88 1016.3
20260903102913 76 117 0.0 0.0 0.00 0.00 0.00 88 1016.2
20260903102408 75 117 0.0 0.0 0.00 0.00 0.00 87 1016.2
20260903101901 75 117 0.0 0.0 0.00 0.00 0.00 87 1016.2
20260903101355 75 117 0.0 0.0 0.00 0.00 0.00 87 1016.1
20260903100850 75 117 0.0 0.0 0.00 0.00 0.00 87 1016.2
20260903100344 76 117 0.0 0.0 0.00 0.00 0.00 87 1016.1
20260903095837 75 117 0.0 0.0 0.00 0.00 0.00 87 1016.1
20260903095332 76 117 0.0 0.0 0.00 0.00 0.00 87 1016.1
20260903094825 76 117 0.0 0.0 0.00 0.00 0.00 87 1016.1
20260903094320 76 117 0.0 0.0 0.00 0.00 0.00 87 1016.0
20260903093814 76 117 0.0 0.0 0.00 0.00 0.00 87 1015.9
20260903093308 76 117 0.0 0.0 0.00 0.00 0.00 87 1016.0
20260903093033 76 117 0.0 0.0 0.00 0.00 0.00 87 1016.0
20260903092533 76 117 0.0 0.0 0.00 0.00 0.00 87 1015.9
20260903091759 76 117 0.0 0.0 0.00 0.00 0.00 87 1015.8
20260903091258 76 117 0.0 0.0 0.00 0.00 0.00 87 1015.8
20260903090755 76 117 0.0 0.0 0.00 0.00 0.00 87 1015.8
20260903090255 76 117 0.0 0.0 0.00 0.00 0.00 87 1015.7
20260903090027 76 117 0.0 0.0 0.00 0.00 0.00 87 1015.7
20260903085253 76 117 0.0 0.0 0.00 0.00 0.00 87 1015.7
20260903084753 76 117 0.0 0.0 0.00 0.00 0.00 87 1015.6
20260903084253 76 117 0.0 0.0 0.00 0.00 0.00 87 1015.6
20260903083751 76 117 0.0 0.0 0.00 0.00 0.00 87 1015.7
20260903083250 76 117 0.0 0.0 0.00 0.00 0.00 87 1015.7
20260903083021 76 117 0.0 0.0 0.00 0.00 0.00 87 1015.8
20260903082249 76 117 0.0 0.0 0.00 0.00 0.00 86 1015.7
20260903082019 76 117 0.0 0.0 0.00 0.00 0.00 87 1015.8
20260903081516 76 117 0.0 0.0 0.00 0.00 0.00 87 1015.7
20260903080745 76 117 0.0 0.0 0.00 0.00 0.00 87 1015.6
20260903080245 76 117 0.0 0.0 0.00 0.00 0.00 87 1015.7
20260903075743 76 117 0.0 0.0 0.00 0.00 0.00 86 1015.7
20260903075242 76 117 0.0 0.0 0.00 0.00 0.00 86 1015.7
20260903074740 76 117 0.0 0.0 0.00 0.00 0.00 87 1015.7
20260903074234 76 117 0.0 0.0 0.00 0.00 0.00 87 1015.7
20260903073727 76 117 0.0 0.0 0.00 0.00 0.00 87 1015.7
20260903073222 76 117 0.0 0.0 0.00 0.00 0.00 86 1015.9
20260903072946 76 117 0.0 0.0 0.00 0.00 0.00 86 1015.9
20260903072210 76 117 0.0 0.0 0.00 0.00 0.00 86 1015.8
20260903071704 76 117 0.0 0.0 0.00 0.00 0.00 86 1015.8
20260903071158 76 117 0.0 0.0 0.00 0.00 0.00 87 1015.8
20260903070652 76 117 0.0 0.0 0.00 0.00 0.00 87 1015.8
20260903070146 76 117 0.0 0.0 0.00 0.00 0.00 86 1015.8
20260903065643 76 117 0.0 0.0 0.00 0.00 0.00 86 1015.8
20260903065636 76 117 0.0 0.0 0.00 0.00 0.00 86 1015.8
20260903064900 76 117 0.0 0.0 0.00 0.00 0.00 87 1015.9
20260903064122 76 117 0.0 0.0 0.00 0.00 0.00 86 1016.0
20260903063616 77 117 0.0 0.0 0.00 0.00 0.00 86 1016.0
20260903063110 77 117 0.0 0.0 0.00 0.00 0.00 86 1016.0
20260903062604 77 117 0.0 0.0 0.00 0.00 0.00 86 1015.9
20260903062058 77 117 0.0 0.0 0.00 0.00 0.00 87 1016.0
20260903061551 77 117 0.0 0.0 0.00 0.00 0.00 87 1016.2
20260903061046 77 117 0.0 0.0 0.00 0.00 0.00 87 1016.2
20260903060552 77 117 0.0 0.0 0.00 0.00 0.00 86 1016.2
20260903060034 77 117 0.0 0.0 0.00 0.00 0.00 86 1016.4
20260903055759 77 117 0.0 0.0 0.00 0.00 0.00 86 1016.5
20260903055022 77 117 0.0 0.0 0.00 0.00 0.00 86 1016.5
20260903054517 77 117 0.0 0.0 0.00 0.00 0.00 86 1016.5
20260903054010 78 117 0.0 0.0 0.00 0.00 0.00 86 1016.6
20260903053504 78 117 0.0 0.0 0.00 0.00 0.00 86 1016.4
20260903052958 78 182 0.0 0.0 0.00 0.00 0.00 86 1016.6
20260903052452 78 182 0.0 0.0 0.00 0.00 0.00 86 1016.7
20260903052218 78 182 0.0 0.0 0.00 0.00 0.00 86 1016.5
20260903051439 78 182 0.0 0.0 0.00 0.00 0.00 86 1016.7
20260903050934 78 182 0.0 0.0 0.00 0.00 0.00 86 1016.6
20260903050428 78 182 0.0 0.0 0.00 0.00 0.00 86 1016.7
20260903050153 78 182 0.0 0.0 0.00 0.00 0.00 86 1016.5
20260903045416 78 171 0.0 0.0 0.00 0.00 0.00 86 1016.5
20260903045142 78 171 0.0 0.0 0.00 0.00 0.00 86 1016.4
20260903044417 78 171 0.0 0.0 0.00 0.00 0.00 86 1016.4
20260903043858 78 188 0.0 0.0 0.00 0.00 0.00 86 1016.5
20260903043623 78 161 0.0 0.0 0.00 0.00 0.00 86 1016.4
20260903043118 78 184 0.0 0.0 0.00 0.00 0.00 85 1016.3
20260903042340 78 184 0.0 0.0 0.00 0.00 0.00 85 1016.3
20260903041834 78 184 0.0 0.0 0.00 0.00 0.00 85 1016.2
20260903041328 78 184 0.0 0.0 0.00 0.00 0.00 85 1016.2
20260903040822 78 184 0.0 0.0 0.00 0.00 0.00 85 1016.2
20260903040316 78 150 0.0 0.0 0.00 0.00 0.00 84 1016.2
20260903040041 78 150 0.0 0.0 0.00 0.00 0.00 84 1016.1
20260903035306 78 150 0.0 0.0 0.00 0.00 0.00 85 1016.2
20260903034758 78 183 0.0 0.0 0.00 0.00 0.00 85 1016.3
20260903034252 78 140 0.0 0.0 0.00 0.00 0.00 84 1016.5
20260903033746 78 140 0.0 0.0 0.00 0.00 0.00 84 1016.7
20260903033511 78 140 0.0 0.0 0.00 0.00 0.00 84 1016.7
20260903032734 78 140 0.0 0.0 0.00 0.00 0.00 84 1016.5